User: anonymous   Login
Location: Julian California
(33.0790°N, 116.6010°W)
Time: 22:10:05
(UTC-07:00)
Language:

Cosmos 1603 - Orbit

View from above orbital plane
View from above orbital plane
View from above satellite
View from above satellite

Ground track
Ground track

The orbit data is extracted from the following two-line orbital elements,

1 15333U 84106A   19288.20461099  .00000199  00000-0  12897-3 0  9992
2 15333  71.0234 112.3936 0019873 347.4119  12.6504 14.14087706808424
Epoch (UTC): 15 October 2019 04:54:38
Eccentricity: 0.0019873
inclination: 71.0234°
perigee height: 831 km
apogee height: 860 km
right ascension of ascending node: 112.3936°
argument of perigee: 347.4119°
revolutions per day: 14.14087706
mean anomaly at epoch: 12.6504°
orbit number at epoch: 80842

The dashed part of the orbit path shows where the satellite is in the earth's shadow,  

DLR